Regional Weather Roundup
Issued by NWS

Home | Current Version | Previous Version | Graphics & Text | Print | Product List | Glossary Off
Versions: 1 2 3 4 5 6 7 8 9 10 11 12 13 14 15 16 17 18 19 20 21 22 23 24 25 26 27 28 29 30 31 32 33 34 35 36 37 38 39 40 41 42 43 44 45 46 47 48 49 50

000
ASUS43 KDMX 251506
RWRIA

WEATHER ROUNDUP FOR IOWA
NATIONAL WEATHER SERVICE DES MOINES IA
1000 AM CDT TUE APR 25 2017

NOTE: "FAIR" INDICATES FEW OR NO CLOUDS BELOW 12,000 FEET WITH NO
SIGNIFICANT WEATHER AND/OR OBSTRUCTIONS TO VISIBILITY.

* - THESE STATIONS ARE NOT NWS STATIONS...THUS NOT UNDER NWS
QUALITY CONTROL.  THEY ALSO DO NOT REPORT WEATHER SUCH
AS PRECIPITATION OR FOG.

IAZ001>003-012>014-020>022-031>034-043>046-251600-
   NORTHWEST IOWA

CITY           SKY/WX    TMP DP  RH WIND       PRES   REMARKS
CARROLL *      CLOUDY    50  46  87 N22       29.49S
CHEROKEE *     LGT RAIN  43  42  97 N16G24    29.52F
DENISON *      MOSUNNY   48  45  87 N13G20    29.51R
LE MARS *      LGT RAIN  43  41  93 N18       29.55F
ORANGE CITY *  LGT RAIN  41  39  93 N9        29.60F
SHELDON *      CLOUDY    41  37  87 NW12      29.61R
SIOUX CITY     LGT RAIN  43  42  97 N20       29.52F
SPENCER        CLOUDY    41  39  93 NW12      29.61R
STORM LAKE *   LGT RAIN  43  41  93 N16G28    29.52F
$$

IAZ055>058-069>071-079>083-090>094-251600-
   SOUTHWEST IOWA

CITY           SKY/WX    TMP DP  RH WIND       PRES   REMARKS
ATLANTIC *     CLOUDY    57  48  72 NW7       29.50R
AUDUBON *      LGT RAIN  50  46  87 CALM      29.52R
CLARINDA *     CLOUDY    64  50  59 S7        29.48F
COUNCIL BLFS * MOSUNNY   52  46  82 N10       29.51F
CRESTON *      PTSUNNY   59  46  63 S15       29.50S
HARLAN  *      PTSUNNY   50  46  87 E5        29.57R
LAMONI         CLOUDY    60  44  55 SE10G20   29.49F
RED OAK *      CLOUDY    61  48  63 N5        29.48F
SHENANDOAH *   CLOUDY    63  50  63 N7        29.47F
$$

IAZ047>049-059>061-072>074-084-251600-
   CENTRAL IOWA

CITY           SKY/WX    TMP DP  RH WIND       PRES   REMARKS
AMES           LGT RAIN  55  46  71 E6        29.48F
ANKENY *       CLOUDY    57  45  62 E6        29.48F
BOONE *        CLOUDY    55  46  71 E9        29.47F
CHARITON *     CLOUDY    59  45  58 S15G25    29.51R
DES MOINES     CLOUDY    59  43  55 E7        29.47F
GRINNELL*      CLOUDY    59  43  54 SE9       29.53F
KNOXVILLE *    CLOUDY    57  45  62 SE9       29.48F
MARSHALLTOWN   CLOUDY    60  43  53 S10       29.52S
NEWTON *       CLOUDY    57  43  58 E8        29.48F
PELLA *        LGT RAIN  58  44  61 SE12      29.51F
PERRY *        PTSUNNY   57  45  64 SE6       29.49R
$$

IAZ004>006-015-016-023>025-035-036-251600-
   NORTH CENTRAL IOWA

CITY           SKY/WX    TMP DP  RH WIND       PRES   REMARKS
ALGONA *       CLOUDY    46  43  87 N13       29.56R
CLARION *      CLOUDY    59  43  55 W7        29.52R
ESTHERVILLE    CLOUDY    41  40  96 NW13      29.58R
FORT DODGE *   CLOUDY    48  39  71 N6        29.54R
MASON CITY     CLOUDY    59  41  51 SE6       29.51F
FOREST CITY *    N/A     54  45  71 N9        29.51F
WEBSTER CITY * CLOUDY    57  45  62 S7        29.50R
IOWA FALLS *     N/A     59  42  53 SE7       29.51F
$$

IAZ007>011-017>019-026>030-037>042-050>054-066-251600-
   NORTHEAST IOWA

CITY           SKY/WX    TMP DP  RH WIND       PRES   REMARKS
CEDAR RAPIDS   CLOUDY    62  44  51 S12       29.56F
CHARLES CITY * CLOUDY    61  39  44 SE9       29.54F
CLINTON *      MOSUNNY   67  46  47 S12       29.62F
DECORAH *      MOSUNNY   63  41  45 S7G14     29.56F
DUBUQUE        PTSUNNY   63  43  48 S12       29.61F
MONTICELLO *   CLOUDY    66  41  39 S10       29.58F
OELWEIN *      CLOUDY    63  43  48 SE12      29.56F
WATERLOO       PTSUNNY   62  42  47 SE9       29.53F
$$

IAZ064-065-067-068-078-251600-
   EAST CENTRAL IOWA

CITY           SKY/WX    TMP DP  RH WIND       PRES   REMARKS
DAVENPORT      MOSUNNY   67  43  41 S12       29.61F
IOWA CITY      CLOUDY    65  45  48 E8        29.59F
MT. PLEASANT * CLOUDY    65  43  44 S8        29.59F
MUSCATINE *    MOSUNNY   68  45  42 S10       29.60S
QUAD CITIES    MOSUNNY   68  43  40 S8        29.60F
$$

IAZ062-063-075>077-085>089-095>099-251600-
   SOUTHEAST IOWA

CITY           SKY/WX    TMP DP  RH WIND       PRES   REMARKS
BURLINGTON     MOSUNNY   66  47  50 S10       29.61R
FAIRFIELD *    CLOUDY    63  45  51 S7        29.57S
FORT MADISON * PTSUNNY   66  46  48 S7        29.61S
KEOKUK *       CLOUDY    64  46  52 SE6       29.59F
OSKALOOSA *    PTSUNNY   60  42  51 SE13      29.54F
CENTERVILLE *    N/A     57  45  62 SE15      29.54F
OTTUMWA        CLOUDY    60  43  53 SE10      29.54F
WASHINGTON *   CLOUDY    66  45  45 S12       29.59S
$$

ABBREVIATIONS USED IN REMARKS
   TC - TEMPERATURES IN CELSIUS
  WCI - WIND CHILL INDEX
   HX - HEAT INDEX
  VSB - VISIBILITY
$$





USA.gov is the U.S. government's official web portal to all federal, state and local government web resources and services.